Location: Canzo
(45.8500°N, 9.2667°E)
Time: 01:41:17
(UTC+00:00)

Daily predictions for brighter satellites

Satellite Brightness Start Highest point End
(mag) Time Altitude Azimuth Time Altitude Azimuth Time Altitude Azimuth
Cosmos 1980 Rocket 4.1 01:05:32 25° ENE 01:05:32 25° ENE 01:08:11 10° NE
Cosmos 2263 Rocket 4.1 01:00:03 10° N 01:03:49 26° NNE 01:03:49 26° NNE
Lacrosse 5 4.0 01:22:28 23° NE 01:22:28 23° NE 01:24:22 10° NE
SL-16 R/B 4.3 01:24:46 18° E 01:24:50 18° E 01:28:29 10° ENE
Resurs 1-4 Rocket 4.0 01:24:50 10° N 01:26:56 25° N 01:26:56 25° N
SL-16 R/B 4.3 01:35:43 20° NNW 01:35:43 20° NNW 01:37:29 10° NNW
CZ-2D R/B 3.9 01:31:25 10° N 01:33:36 25° N 01:33:36 25° N
USA 267 3.9 01:43:42 10° ENE 01:49:37 43° SE 01:49:37 43° SE
NOSS 3-3 (A) 4.4 01:51:32 55° E 01:51:32 55° E 01:57:04 10° NE
NOSS 3-3 (C) 4.4 01:51:39 54° E 01:51:39 54° E 01:57:09 10° NE
ARIANE 5 R/B 3.8 01:46:15 10° NNE 01:50:06 36° ENE 01:50:06 36° ENE
ATLAS 5 CENTAUR R/B 4.3 01:57:35 13° NNW 01:57:35 13° NNW 01:59:40 10° NNE
Cosmos 1934 Rocket 4.2 01:53:33 10° N 01:58:46 63° NNE 01:58:46 63° NNE
Gbstr 26 Del rocket 4.3 02:03:39 79° WNW 02:04:15 87° SSW 02:11:52 10° ESE
ATLAS 2AS CENTAUR R/B 4.0 01:57:54 10° NNW 02:05:01 40° NE 02:11:37 10° ESE
Cosmos 2278 4.4 02:10:19 48° N 02:10:19 48° N 02:14:38 10° NNE
ADEOS II 3.0 02:14:47 10° N 02:18:19 40° NNW 02:18:19 40° NNW
SL-4 R/B 3.5 02:21:54 39° E 02:21:54 39° E 02:25:09 10° ENE
IDEFIX/ARIANE 42P 2.9 02:16:50 10° NNE 02:22:04 59° E 02:22:24 57° ESE
USA 234 3.8 02:19:06 10° ESE 02:25:26 55° NNE 02:30:48 15° NW
Cosmos 2228 Rocket 4.0 02:33:13 42° N 02:33:13 42° N 02:36:14 10° N
Cosmos 1238 Rocket 4.0 02:27:34 10° NNW 02:33:16 61° NW 02:33:16 61° NW
Cosmos 1605 Rocket 4.0 02:27:49 10° N 02:34:17 87° E 02:37:19 34° S
USA 305 4.4 02:36:27 29° N 02:36:27 29° N 02:39:49 10° NE
Cosmos 1535 Rocket 4.5 02:30:22 10° NNW 02:36:27 63° W 02:36:27 63° W
Cosmos 2360 Rocket 3.8 02:33:12 15° SSE 02:36:50 30° ESE 02:41:40 10° NE
H-2A R/B 3.4 02:33:18 10° SE 02:37:26 40° ENE 02:41:39 10° N
Cosmos 1697 Rocket 4.1 02:40:57 24° NW 02:40:57 24° NW 02:44:53 10° N
USA 306 4.4 02:40:43 29° N 02:40:43 29° N 02:44:15 10° NE
ATLAS CENTAUR R/B 4.4 02:32:51 10° WNW 02:44:44 41° N 02:49:33 10° ENE
CZ-2C R/B 4.2 02:40:40 10° NNE 02:45:17 32° E 02:49:54 10° SSE
Meteor 1-4 Rocket 4.0 02:46:55 33° NNE 02:46:55 33° NNE 02:49:02 10° NNE
Cosmos 1980 Rocket 3.0 02:47:20 36° NW 02:47:20 36° NW 02:52:12 10° NNE
Cosmos 2263 Rocket 3.8 02:43:38 10° NW 02:45:20 20° NW 02:45:20 20° NW
ASTEX 1 3.6 02:47:04 10° N 02:51:25 55° NW 02:51:25 55° NW
Cosmos 1844 Rocket 4.0 02:47:59 10° NNW 02:53:18 41° NE 02:58:36 10° SE
Cosmos 2322 Rocket 2.3 02:54:21 44° S 02:56:11 76° ESE 03:01:54 10° NNE
Cosmos 1898 Rocket 3.3 02:52:19 10° NNW 02:57:35 77° WSW 03:02:52 10° SSE
Cosmos 1666 3.1 02:55:58 10° N 02:59:07 57° NNE 02:59:07 57° NNE
Spot 4 Rocket 3.9 02:54:56 10° N 03:00:05 75° WNW 03:01:01 59° SW
Meteor 1-11 Rocket 3.7 02:56:05 10° N 03:01:53 86° E 03:07:30 10° S
Lacrosse 5 3.4 03:01:39 23° NW 03:03:07 26° NNW 03:07:22 10° NE
Cosmos 921 Rocket 4.1 03:05:07 30° NNW 03:05:07 30° NNW 03:07:53 10° N
Cosmos 858 Rocket 4.4 02:59:01 10° NNW 03:04:15 88° ENE 03:09:27 10° SSE
Cosmos 1812 3.8 03:08:14 34° NNW 03:08:14 34° NNW 03:10:43 10° N
SL-16 R/B 2.1 03:06:39 48° SW 03:08:16 74° WNW 03:13:58 10° NNE
Resurs 1-4 Rocket 4.3 03:07:24 10° NW 03:08:01 11° NW 03:08:01 11° NW
Meteor 1-27 Rocket 3.9 03:05:04 17° S 03:09:42 78° E 03:15:36 10° NNE
USA 307 4.4 03:08:53 24° NNW 03:10:04 27° N 03:13:44 10° NE
ERBS 3.9 03:12:22 25° N 03:12:22 25° N 03:14:47 10° NNE
IRIDIUM 104 4.2 03:07:09 10° N 03:12:22 70° W 03:15:23 25° SSW
USA 308 4.5 03:12:07 23° NW 03:13:29 27° N 03:17:09 10° NE
Cosmos 1727 Rocket 3.9 03:09:26 22° SSW 03:13:48 81° W 03:20:09 10° N
Cosmos 2100 Rocket 4.2 03:07:54 10° N 03:14:18 73° E 03:20:39 10° SSE
Cosmos 1937 Rocket 3.3 03:11:58 10° NNW 03:17:06 72° WSW 03:22:12 10° SSE
Cosmos 2237 4.5 03:13:42 21° S 03:17:35 68° ESE 03:23:16 10° NNE
Cosmos 1459 Rocket 4.1 03:12:23 10° N 03:18:28 71° E 03:24:30 10° SSE
CZ-4C R/B 3.5 03:20:02 46° NW 03:20:02 46° NW 03:22:40 10° NNW
FALCON 9 DEB 3.4 03:20:10 55° NNW 03:20:10 55° NNW 03:23:30 10° NE
IRIDIUM 114 4.3 03:16:21 10° N 03:21:29 58° W 03:24:29 24° SSW
Cosmos 841 Rocket 3.6 03:18:31 22° SSW 03:21:55 77° ESE 03:27:12 10° NNE
Cosmos 1802 Rocket 4.4 03:18:20 10° N 03:24:32 66° E 03:30:46 10° SSE
Cosmos 1536 2.7 03:20:44 10° NNW 03:24:49 77° W 03:28:52 10° S
Cosmos 2219 Rocket 4.2 03:20:11 10° SSE 03:24:50 27° ESE 03:29:30 10° NE
Cosmos 2208 Rocket 4.3 03:22:04 15° S 03:26:27 68° ESE 03:31:37 10° NNE
Cosmos 1763 Rocket 3.7 03:25:15 38° WSW 03:26:58 53° WNW 03:32:10 10° NNE
CZ-2D R/B 4.3 03:23:40 10° N 03:27:24 33° WNW 03:27:24 33° WNW
Cosmos 1814 Rocket 4.2 03:23:39 14° S 03:28:05 69° ESE 03:33:21 10° NNE
ARIANE 5 R/B 3.4 03:25:37 10° N 03:29:57 29° WNW 03:30:25 29° WNW
USA 32 3.9 03:24:44 10° N 03:29:58 68° W 03:35:10 10° S
NOSS 3-4 (A) 3.8 03:25:40 10° NW 03:32:40 72° SW 03:40:27 10° SSE
NOSS 3-4 (C) 3.8 03:25:46 10° NW 03:32:47 73° SW 03:40:33 10° SSE
USA 267 3.3 03:26:37 10° NE 03:33:06 68° NNW 03:36:57 26° WSW
Cosmos 1707 Rocket 3.6 03:32:27 36° SW 03:33:55 54° WNW 03:38:13 10° N
ADEOS Rocket 3.1 03:30:45 10° SSE 03:37:23 86° ENE 03:43:22 10° NNW
CZ-4B R/B 2.2 03:37:08 10° SSE 03:40:14 51° ENE 03:43:27 10° N
ERS-2 2.0 03:37:49 10° S 03:41:28 76° WSW 03:45:09 10° NNW
Cosmos 540 Rocket 3.4 03:38:54 20° SSW 03:42:34 73° WNW 03:47:45 10° NNE
MSX 4.2 03:39:33 10° N 03:45:00 44° WNW 03:48:33 20° SW
COSMOS 2428 4.3 03:42:15 10° S 03:47:22 35° ESE 03:52:31 10° NE
Cosmos 44 Rocket 3.2 03:44:48 26° SW 03:47:25 66° NW 03:52:18 10° NNE
Cosmos 1733 Rocket 3.0 03:43:44 10° NNW 03:48:02 60° W 03:52:16 10° S
Cosmos 1544 3.9 03:45:51 10° N 03:49:22 52° ENE 03:52:52 10° SSE
Cosmos 1743 2.7 03:46:54 10° N 03:50:43 84° E 03:54:31 10° S
PAYLOAD A 3.9 03:48:04 10° N 03:52:40 57° WNW 03:57:13 10° SSW
Landsat 5 4.3 03:51:04 10° SSW 03:55:07 33° W 03:59:09 10° NNW
Cosmos 2173 Rocket 4.0 03:50:00 10° NNW 03:56:15 61° W 04:02:29 10° S
Cosmos 2333 Rocket 3.1 03:50:43 10° S 03:56:16 51° ESE 04:01:50 10° NE
ATLAS 2AS CENTAUR R/B 2.8 03:49:05 10° NW 03:56:24 62° WSW 04:03:07 10° SSE
ADEOS 3.8 03:51:11 10° NNE 03:56:25 73° ESE 04:01:38 10° S
BREEZE M DEB (TANK) 4.3 03:47:17 10° WNW 03:58:14 34° WSW 04:02:14 10° S
CZ-2C R/B 4.0 03:55:11 10° NNW 03:58:15 23° WNW 03:58:54 22° W
Cosmos 2242 Rocket 4.0 03:54:56 10° S 03:59:15 64° E 04:03:39 10° NNE
SL-4 R/B 2.7 03:57:30 21° W 04:00:22 53° NNW 04:05:05 10° ENE
Cosmos 2322 4.0 03:55:27 10° SSW 04:01:04 71° ESE 04:06:43 10° NNE
IDEFIX/ARIANE 42P 3.9 03:57:16 10° NNW 04:01:14 22° WNW 04:03:12 18° W
PSLV R/B 3.8 03:57:57 10° N 04:01:58 45° WNW 04:05:43 11° SW
Cosmos 1570 Rocket 4.3 03:58:30 14° SW 04:02:54 52° WNW 04:08:09 10° NNE
BREEZE-M DEB (TANK) 2.6 03:59:36 18° WSW 04:04:28 75° SSE 04:07:16 10° E
USA 276 2.1 04:03:18 22° WNW 04:05:14 69° SSW 04:08:25 10° SE
Meteor 2-20 4.4 04:00:28 10° SSW 04:06:35 71° W 04:12:41 10° N
USA 234 3.3 04:02:01 10° SE 04:08:27 58° SW 04:14:53 10° WNW
Cosmos 1862 Rocket 3.8 04:04:34 10° SSW 04:08:48 47° WNW 04:13:01 10° N
BREEZE-M DEB (TANK) 3.9 04:08:00 17° W 04:10:32 60° N 04:20:06 10° E
H-2A R/B 3.2 04:10:03 10° SW 04:13:32 22° W 04:17:05 10° NW
CZ-4C R/B 3.2 04:07:02 10° NW 04:14:14 75° NE 04:22:32 10° SE
SAR-Lupe-4 3.5 04:10:54 10° S 04:14:27 69° WSW 04:18:03 10° NNW
ALOS 2.3 04:11:13 10° NNE 04:15:55 87° E 04:20:34 10° SSW
Cosmos 1689 Rocket 2.7 04:13:30 10° SSE 04:16:26 60° ENE 04:19:23 10° N
USA 305 4.4 04:13:11 10° NW 04:16:57 30° N 04:20:43 10° ENE
PKM 4.4 04:14:43 11° WNW 04:18:01 39° SW 04:21:53 10° SSE
FENGYUN 3A 3.7 04:12:49 10° NNE 04:18:16 89° ESE 04:23:41 10° SSW
Cosmos 2333 4.2 04:13:29 10° SSW 04:19:16 84° WNW 04:25:05 10° NNE
Cosmos 2360 Rocket 2.5 04:15:09 10° SW 04:20:35 47° WNW 04:26:04 10° NNE
USA 306 4.4 04:17:37 10° NW 04:21:25 30° NNE 04:25:12 10° ENE
COSMOS 2455 4.0 04:16:18 10° NNW 04:22:08 46° NE 04:27:55 10° ESE
CZ-2C R/B 3.1 04:18:48 10° N 04:23:31 37° WNW 04:28:14 10° SW
Cosmos 1975 2.8 04:20:11 10° N 04:24:13 89° ESE 04:28:12 10° S
Meteor 1-19 Rocket 4.2 04:21:29 10° S 04:26:59 87° W 04:32:42 10° N
Meteor 1-18 Rocket 4.2 04:22:11 10° SSW 04:27:44 80° W 04:33:22 10° N
Cosmos 2016 Rocket 4.1 04:22:07 10° NNW 04:27:59 51° W 04:33:51 10° SSW
Cosmos 372 Rocket 4.5 04:23:24 10° NW 04:28:03 35° WSW 04:32:38 10° SSW
Cosmos 1484 Rocket 3.0 04:29:14 10° N 04:33:10 55° WNW 04:37:04 10° SSW
SAR-Lupe-1 4.4 04:30:10 10° S 04:33:34 42° W 04:37:00 10° NNW
Cosmos 2061 Rocket 4.3 04:28:42 10° NNW 04:34:49 47° W 04:40:54 10° SSW
ATLAS CENTAUR Rocket 4.5 04:29:23 10° WSW 04:36:05 17° SSW 04:39:34 10° S
Cosmos 1844 Rocket 3.3 04:32:02 10° NW 04:37:06 35° WSW 04:42:09 10° S
Cosmos 1515 3.8 04:33:32 10° SSW 04:37:13 50° WNW 04:40:55 10° N
Cosmos 2233 Rocket 3.9 04:31:39 10° N 04:37:48 79° W 04:43:56 10° S
Cosmos 2322 Rocket 3.6 04:36:31 10° W 04:40:52 22° NW 04:45:16 10° N
Cosmos 2278 Rocket 3.0 04:36:40 10° NNW 04:42:17 58° ENE 04:47:50 10° SE
Okean 1 4.1 04:41:39 10° SW 04:45:19 33° WNW 04:49:00 10° N
Cosmos 1844 4.2 04:40:53 10° NW 04:45:55 35° WSW 04:50:54 10° S
